Starlink 32400

operational
NORAD ID: 61669 Int'l Des: 2024-193 Owner: SPXS Country: US Constellation: starlink
LEOCIRCULAR

关于 Starlink 32400

正在加载描述...

实时位置

正在加载3D地球...

即将过境

高度历史

Altitude vs Time

uPlot chart will show altitude changes over time

两行轨道根数

1 61669U 24193J 25350.64675205 .00000063 00000-0 14259-4 0 9991
2 61669 53.1602 114.5178 0001124 90.2406 269.8724 15.30194865 63844
Epoch: Dec 16, 2025 • Age: 20 hours

当前状态

高度 494.2 km
速度 7.62 km/s
星下点 -52.43°S, 135.51°E
发射日期 Oct 26, 2024
运行时间 1.1 years
类型 internet

技术详情

分类 Payload
质量 730.00 kg
干质量 700.00 kg
总质量 730.00 kg
长度 0.30 m
直径 4.10 m
跨度 29.00 m
形状 Box + pan
制造商 SPXS
平台类型 Starlink V2M
阶段状态 In Orbit
所有者/国家 SPXS/US

大型星座

Loading constellations...